EW8016 Weather Reports


Display with metric or nautical units.
time (UTC)temp
F
wind
direction
speed
MPH
gust
MPH
rain 1hr
in
rain 24hr
in
rain mn
in
humidity
%
barometer
mb
20260903084003 68 228 6.0 16.0 0.00 0.01 0.00 85 1015.6
20260903083716 68 222 6.0 16.0 0.00 0.01 0.00 85 1015.6
20260903083003 68 224 7.0 14.0 0.00 0.01 0.00 85 1015.5
20260903082503 68 227 8.0 18.0 0.00 0.01 0.00 85 1015.4
20260903082003 68 214 7.0 18.0 0.00 0.01 0.00 85 1015.4
20260903081716 68 201 6.0 19.0 0.00 0.01 0.00 85 1015.3
20260903081003 68 192 5.0 19.0 0.00 0.01 0.00 85 1015.2
20260903080503 67 206 5.0 10.0 0.00 0.01 0.00 85 1015.3
20260903080217 67 219 5.0 12.0 0.00 0.01 0.00 85 1015.4
20260903075718 67 222 5.0 13.0 0.00 0.01 0.00 85 1015.5
20260903075003 67 207 4.0 12.0 0.00 0.01 0.00 85 1015.5
20260903074505 67 201 5.0 12.0 0.00 0.01 0.00 85 1015.5
20260903074003 66 213 4.0 13.0 0.00 0.01 0.00 85 1015.5
20260903073503 66 207 4.0 13.0 0.00 0.01 0.00 85 1015.5
20260903073003 66 187 4.0 9.0 0.00 0.01 0.00 85 1015.3
20260903072503 66 191 5.0 12.0 0.00 0.01 0.00 86 1015.4
20260903072003 66 192 4.0 12.0 0.00 0.01 0.00 86 1015.4
20260903071718 66 200 4.0 11.0 0.00 0.01 0.00 86 1015.5
20260903071003 65 195 5.0 11.0 0.00 0.01 0.00 86 1015.5
20260903070503 65 192 4.0 11.0 0.00 0.01 0.00 86 1015.7
20260903070003 65 197 4.0 8.0 0.00 0.01 0.00 86 1015.7
20260903065718 65 199 4.0 8.0 0.00 0.01 0.00 85 1015.7
20260903065005 65 183 3.0 10.0 0.00 0.01 0.00 85 1015.6
20260903064503 65 182 4.0 10.0 0.00 0.01 0.00 84 1015.5
20260903064003 65 173 4.0 10.0 0.00 0.01 0.00 84 1015.5
20260903063503 65 175 3.0 9.0 0.00 0.01 0.00 84 1015.6
20260903063003 65 195 3.0 13.0 0.00 0.01 0.00 84 1015.6
20260903062503 65 198 3.0 13.0 0.00 0.01 0.00 84 1015.7
20260903062003 65 192 3.0 8.0 0.00 0.01 0.00 84 1015.7
20260903061503 64 194 3.0 8.0 0.00 0.01 0.00 84 1015.7
20260903061216 64 191 3.0 8.0 0.00 0.01 0.00 84 1015.7
20260903060503 64 186 3.0 9.0 0.00 0.01 0.00 85 1015.8
20260903060216 64 188 3.0 9.0 0.00 0.01 0.00 85 1015.8
20260903055503 64 188 3.0 9.0 0.00 0.01 0.00 85 1015.8
20260903055003 64 186 3.0 9.0 0.00 0.01 0.00 86 1015.8
20260903054503 64 177 3.0 8.0 0.00 0.01 0.00 86 1015.8
20260903054003 64 171 3.0 9.0 0.00 0.01 0.00 86 1015.8
20260903053503 64 169 4.0 9.0 0.00 0.01 0.00 86 1015.8
20260903053003 64 171 4.0 9.0 0.00 0.01 0.00 86 1015.7
20260903052717 64 179 4.0 9.0 0.00 0.01 0.00 87 1015.7
20260903052003 64 168 5.0 11.0 0.00 0.01 0.00 87 1015.7
20260903051717 63 164 5.0 11.0 0.00 0.01 0.00 88 1015.6
20260903051220 63 166 4.0 8.0 0.00 0.01 0.00 88 1015.5
20260903050503 63 171 3.0 9.0 0.00 0.01 0.00 89 1015.5
20260903050003 63 165 2.0 9.0 0.00 0.01 0.00 89 1015.5
20260903045503 63 164 3.0 7.0 0.00 0.01 0.00 89 1015.7
20260903045003 63 161 3.0 8.0 0.00 0.01 0.00 89 1015.6
20260903044503 63 162 3.0 9.0 0.00 0.01 0.00 88 1015.7
20260903044003 64 174 4.0 9.0 0.00 0.01 0.00 88 1015.6
20260903043503 64 174 4.0 8.0 0.00 0.01 0.00 87 1015.8
20260903043218 64 172 4.0 8.0 0.00 0.01 0.00 87 1016.0
20260903042503 64 175 4.0 10.0 0.00 0.01 0.00 86 1015.8
20260903042218 64 179 4.0 13.0 0.00 0.01 0.00 86 1015.8
20260903041503 64 183 4.0 13.0 0.00 0.01 0.00 86 1015.7
20260903041003 64 178 4.0 11.0 0.00 0.01 0.00 86 1015.9
20260903040503 63 176 4.0 10.0 0.00 0.01 0.00 86 1015.8
20260903040003 63 175 4.0 10.0 0.00 0.01 0.00 86 1015.9
20260903035503 63 173 4.0 10.0 0.00 0.01 0.00 86 1015.9
20260903035003 63 167 4.0 10.0 0.00 0.01 0.00 86 1016.0
20260903034503 63 161 3.0 7.0 0.00 0.01 0.00 86 1016.0
20260903034003 63 156 3.0 6.0 0.00 0.01 0.00 86 1016.2
20260903033504 63 156 3.0 8.0 0.00 0.01 0.00 86 1016.1
20260903033003 63 159 4.0 8.0 0.00 0.01 0.00 86 1016.1
20260903032716 63 159 4.0 8.0 0.00 0.01 0.00 86 1016.1
20260903032003 63 158 4.0 9.0 0.00 0.01 0.00 86 1016.2
20260903031503 63 157 3.0 8.0 0.00 0.01 0.00 86 1016.3
20260903031003 63 162 4.0 9.0 0.00 0.01 0.00 87 1016.4
20260903030503 63 159 4.0 9.0 0.00 0.01 0.00 87 1016.5
20260903030217 63 159 4.0 8.0 0.00 0.01 0.00 87 1016.5
20260903025503 63 160 4.0 10.0 0.00 0.01 0.00 87 1016.5
20260903025005 63 171 3.0 10.0 0.00 0.01 0.00 87 1016.5
20260903024503 63 171 3.0 10.0 0.00 0.01 0.00 87 1016.5
20260903024003 63 166 3.0 8.0 0.00 0.01 0.00 87 1016.6
20260903023503 63 170 4.0 7.0 0.00 0.01 0.00 87 1016.6
20260903023003 63 168 4.0 9.0 0.00 0.01 0.00 87 1016.7
20260903022503 62 163 4.0 11.0 0.00 0.01 0.00 87 1016.6
20260903022003 62 166 4.0 11.0 0.00 0.01 0.00 88 1016.7
20260903021503 62 165 4.0 10.0 0.00 0.01 0.00 88 1016.9
20260903021003 62 159 4.0 8.0 0.00 0.01 0.00 88 1016.9
20260903020503 62 154 3.0 7.0 0.00 0.01 0.00 89 1016.9
20260903020217 62 158 3.0 8.0 0.00 0.01 0.00 89 1016.9
20260903015503 62 166 4.0 8.0 0.00 0.01 0.00 89 1017.0
20260903015003 62 164 4.0 8.0 0.00 0.01 0.00 89 1017.1
20260903014718 62 162 3.0 8.0 0.00 0.01 0.00 89 1017.1
20260903014003 62 164 3.0 7.0 0.00 0.01 0.00 89 1017.1
20260903013503 62 170 4.0 10.0 0.00 0.01 0.00 88 1017.2
20260903013003 63 169 5.0 10.0 0.00 0.01 0.00 88 1017.2
20260903012503 63 176 5.0 13.0 0.00 0.01 0.00 87 1017.3
20260903012003 63 174 5.0 13.0 0.00 0.01 0.00 87 1017.5
20260903011718 63 166 5.0 13.0 0.00 0.01 0.00 86 1017.5
20260903011003 63 165 4.0 13.0 0.00 0.01 0.00 86 1017.7
20260903010503 63 168 4.0 9.0 0.00 0.01 0.00 86 1017.8
20260903010003 63 170 3.0 9.0 0.00 0.01 0.00 85 1017.7
20260903005503 64 180 3.0 7.0 0.00 0.01 0.00 85 1017.6
20260903005219 64 182 3.0 7.0 0.00 0.01 0.00 85 1017.7
20260903004718 64 184 4.0 8.0 0.00 0.01 0.00 84 1017.7
20260903004003 64 184 3.0 8.0 0.00 0.01 0.00 84 1017.8
20260903003503 64 197 3.0 9.0 0.00 0.01 0.00 84 1017.7
20260903003003 64 205 4.0 13.0 0.00 0.01 0.00 84 1017.7
20260903002503 64 220 4.0 13.0 0.00 0.01 0.00 83 1017.7
20260903002216 64 228 3.0 13.0 0.00 0.01 0.00 82 1017.9
20260903001503 64 197 3.0 7.0 0.00 0.01 0.00 82 1017.9
20260903001003 64 205 3.0 8.0 0.00 0.01 0.00 82 1018.0
20260903000717 64 208 3.0 12.0 0.00 0.01 0.00 83 1017.9
20260903000219 64 210 3.0 12.0 0.00 0.01 0.00 83 1018.0
20260902235503 64 215 4.0 18.0 0.00 0.01 0.00 84 1018.1
20260902235003 64 199 5.0 18.0 0.00 0.01 0.00 85 1018.2
20260902234503 63 176 4.0 11.0 0.00 0.01 0.00 86 1018.2
20260902234003 63 167 2.0 5.0 0.00 0.01 0.00 87 1018.2
20260902233503 63 162 2.0 5.0 0.00 0.01 0.00 88 1018.3
20260902233218 63 162 2.0 6.0 0.00 0.01 0.00 88 1018.3
20260902232503 63 161 2.0 6.0 0.00 0.01 0.00 88 1018.3
20260902232003 63 161 3.0 6.0 0.00 0.01 0.00 88 1018.2
20260902231717 63 160 3.0 6.0 0.00 0.01 0.00 88 1018.3
20260902231003 63 172 2.0 5.0 0.00 0.01 0.00 89 1018.2
20260902230503 63 166 2.0 5.0 0.00 0.01 0.00 89 1018.3
20260902230218 63 154 2.0 7.0 0.00 0.01 0.00 89 1018.4
20260902225503 63 143 2.0 7.0 0.00 0.01 0.00 89 1018.3
20260902225005 63 138 2.0 5.0 0.00 0.01 0.00 89 1018.4
20260902224503 63 154 2.0 5.0 0.00 0.01 0.00 89 1018.5
20260902224003 63 164 2.0 5.0 0.00 0.01 0.00 90 1018.6
20260902223503 63 149 2.0 5.0 0.00 0.01 0.00 90 1018.7
20260902223003 63 146 2.0 4.0 0.00 0.01 0.00 90 1018.7
20260902222503 63 155 2.0 4.0 0.00 0.01 0.00 90 1018.7
20260902222003 63 156 2.0 4.0 0.00 0.01 0.00 90 1018.7
20260902221503 63 156 2.0 6.0 0.00 0.01 0.00 90 1018.9
20260902221003 63 159 3.0 6.0 0.00 0.01 0.00 90 1018.9
20260902220503 63 168 2.0 6.0 0.01 0.01 0.00 90 1019.0
20260902220004 63 169 2.0 6.0 0.01 0.01 0.00 90 1019.0
20260902215716 63 166 2.0 5.0 0.01 0.01 0.01 90 1018.9
20260902215003 63 157 2.0 5.0 0.01 0.01 0.01 90 1019.0
20260902214503 63 157 2.0 5.0 0.01 0.01 0.01 90 1019.0
20260902214003 63 157 2.0 5.0 0.01 0.01 0.01 89 1018.9
20260902213503 63 157 2.0 3.0 0.01 0.01 0.01 89 1019.0
20260902213003 63 157 2.0 3.0 0.01 0.01 0.01 89 1019.1
20260902212503 63 157 2.0 3.0 0.01 0.01 0.01 88 1019.1
20260902212003 63 157 1.0 3.0 0.01 0.01 0.01 88 1019.1
20260902211503 64 157 1.0 3.0 0.01 0.01 0.01 88 1019.2
20260902211003 64 157 2.0 3.0 0.01 0.01 0.01 87 1019.2
20260902210718 64 157 1.0 3.0 0.01 0.01 0.01 87 1019.2
20260902210003 64 157 2.0 5.0 0.00 0.00 0.00 86 1019.2
20260902205503 64 157 2.0 5.0 0.00 0.00 0.00 86 1019.3
20260902205003 64 157 2.0 5.0 0.00 0.00 0.00 85 1019.2
20260902204503 64 157 2.0 5.0 0.00 0.00 0.00 85 1019.3
20260902204217 64 157 2.0 5.0 0.00 0.00 0.00 85 1019.2
20260902203503 64 157 1.0 3.0 0.00 0.00 0.00 85 1019.3
20260902203217 64 157 2.0 3.0 0.00 0.00 0.00 85 1019.3
20260902202503 64 157 2.0 5.0 0.00 0.00 0.00 85 1019.4
20260902202003 64 154 2.0 5.0 0.00 0.00 0.00 85 1019.5
20260902201503 64 151 1.0 5.0 0.00 0.00 0.00 85 1019.4
20260902201003 64 149 0.0 3.0 0.00 0.00 0.00 85 1019.5
20260902200503 64 0 0.0 0.0 0.00 0.00 0.00 85 1019.6
20260902200003 64 0 0.0 0.0 0.00 0.00 0.00 84 1019.7
20260902195503 64 131 0.0 1.0 0.00 0.00 0.00 85 1019.6
20260902195003 65 139 1.0 3.0 0.00 0.00 0.00 84 1019.6
20260902194503 65 181 1.0 3.0 0.00 0.00 0.00 84 1019.7
20260902194003 65 238 0.0 2.0 0.00 0.00 0.00 84 1019.6
20260902193503 65 238 0.0 2.0 0.00 0.00 0.00 84 1019.7
20260902193003 65 238 1.0 2.0 0.00 0.00 0.00 83 1019.7
20260902192503 66 238 1.0 3.0 0.00 0.00 0.00 83 1019.7
20260902192216 66 238 1.0 3.0 0.00 0.00 0.00 83 1019.7
20260902191503 66 238 0.0 2.0 0.00 0.00 0.00 83 1019.7
20260902191003 66 0 0.0 0.0 0.00 0.00 0.00 83 1019.7
20260902190503 66 238 0.0 2.0 0.00 0.00 0.00 82 1019.7
20260902190003 66 238 0.0 2.0 0.00 0.00 0.00 82 1019.7
20260902185503 66 238 0.0 2.0 0.00 0.00 0.00 82 1019.7
20260902185003 66 238 0.0 2.0 0.00 0.00 0.00 81 1019.8
20260902184717 66 238 1.0 2.0 0.00 0.00 0.00 81 1019.7
20260902184003 66 238 1.0 3.0 0.00 0.00 0.00 81 1019.7
20260902183503 67 237 1.0 4.0 0.00 0.00 0.00 80 1019.6
20260902183003 67 236 1.0 4.0 0.00 0.00 0.00 80 1019.6
20260902182717 67 235 1.0 4.0 0.00 0.00 0.00 80 1019.7
20260902182003 67 236 1.0 4.0 0.00 0.00 0.00 80 1019.6
20260902181503 67 227 1.0 4.0 0.00 0.00 0.00 80 1019.6
20260902181003 67 218 1.0 4.0 0.00 0.00 0.00 79 1019.6
20260902180503 67 220 1.0 5.0 0.00 0.00 0.00 79 1019.6
20260902180005 68 216 1.0 5.0 0.00 0.00 0.00 79 1019.5
20260902175503 68 169 1.0 3.0 0.00 0.00 0.00 79 1019.6
20260902175003 68 155 1.0 3.0 0.00 0.00 0.00 79 1019.4
20260902174503 68 155 0.0 2.0 0.00 0.00 0.00 78 1019.5
20260902174003 68 0 0.0 0.0 0.00 0.00 0.00 78 1019.5
20260902173503 68 0 0.0 0.0 0.00 0.00 0.00 78 1019.5
20260902173003 68 0 0.0 0.0 0.00 0.00 0.00 77 1019.5
20260902172503 68 0 0.0 0.0 0.00 0.00 0.00 77 1019.4
20260902172004 68 219 0.0 2.0 0.00 0.00 0.00 77 1019.4
20260902171503 68 200 1.0 5.0 0.00 0.00 0.00 76 1019.4
20260902171003 68 188 1.0 5.0 0.00 0.00 0.00 75 1019.5
20260902170503 69 183 1.0 5.0 0.00 0.00 0.00 75 1019.4
20260902170003 69 194 2.0 4.0 0.00 0.00 0.00 75 1019.4
20260902165717 69 190 2.0 4.0 0.00 0.00 0.00 75 1019.6
20260902165003 69 174 1.0 5.0 0.00 0.00 0.00 75 1019.5
20260902164503 69 187 2.0 5.0 0.00 0.00 0.00 75 1019.5
20260902164003 69 213 2.0 5.0 0.00 0.00 0.00 75 1019.6
20260902163716 69 230 2.0 5.0 0.00 0.00 0.00 75 1019.5
20260902163003 69 222 2.0 5.0 0.00 0.00 0.00 75 1019.6
20260902162503 69 210 2.0 4.0 0.00 0.00 0.00 75 1019.5
20260902162003 69 191 2.0 7.0 0.00 0.00 0.00 74 1019.6
20260902161503 69 192 2.0 7.0 0.00 0.00 0.00 74 1019.6
20260902161003 69 217 3.0 7.0 0.00 0.00 0.00 73 1019.7
20260902160503 69 228 4.0 12.0 0.00 0.00 0.00 72 1019.7
20260902160003 69 236 5.0 12.0 0.00 0.00 0.00 72 1019.7
20260902155503 70 242 5.0 10.0 0.00 0.00 0.00 70 1019.7
20260902155003 70 235 4.0 10.0 0.00 0.00 0.00 70 1019.7
20260902154503 70 227 4.0 9.0 0.00 0.00 0.00 69 1019.8
20260902154003 70 231 4.0 9.0 0.00 0.00 0.00 69 1019.8
20260902153503 70 238 4.0 11.0 0.00 0.00 0.00 69 1019.9
20260902153003 70 220 4.0 11.0 0.00 0.00 0.00 69 1019.8
20260902152503 69 188 3.0 6.0 0.00 0.00 0.00 70 1019.8
20260902152003 68 199 2.0 6.0 0.00 0.00 0.00 70 1019.9
20260902151503 68 193 2.0 6.0 0.00 0.00 0.00 71 1020.0
20260902151003 67 176 1.0 4.0 0.00 0.00 0.00 70 1020.0
20260902150718 67 199 2.0 4.0 0.00 0.00 0.00 70 1020.0
20260902150217 67 227 2.0 4.0 0.00 0.00 0.00 70 1020.0
20260902145503 66 237 2.0 4.0 0.00 0.00 0.00 70 1020.1
20260902145004 66 224 2.0 6.0 0.00 0.00 0.00 70 1020.1
20260902144718 66 218 2.0 6.0 0.00 0.00 0.00 70 1020.1
20260902144217 66 214 2.0 6.0 0.00 0.00 0.00 71 1020.2
20260902143503 66 242 4.0 9.0 0.00 0.00 0.00 73 1020.2
20260902143003 66 249 4.0 10.0 0.00 0.00 0.00 73 1020.2
20260902142503 66 250 4.0 10.0 0.00 0.00 0.00 75 1020.4
20260902142003 66 260 6.0 15.0 0.00 0.00 0.00 75 1020.3
20260902141503 66 275 6.0 15.0 0.00 0.00 0.00 74 1020.2
20260902141003 67 282 7.0 17.0 0.00 0.00 0.00 73 1020.2
20260902140503 67 278 8.0 17.0 0.00 0.00 0.00 72 1020.2
20260902140003 68 275 8.0 16.0 0.00 0.00 0.00 72 1020.2
20260902135503 70 277 7.0 16.0 0.00 0.00 0.00 70 1020.0
20260902135003 71 281 6.0 13.0 0.00 0.00 0.00 66 1019.9
20260902134717 71 281 6.0 13.0 0.00 0.00 0.00 66 1019.8
20260902134005 72 273 5.0 10.0 0.00 0.00 0.00 65 1019.8
20260902133503 72 278 5.0 10.0 0.00 0.00 0.00 64 1019.7
20260902133003 72 285 5.0 12.0 0.00 0.00 0.00 64 1019.8
20260902132503 73 277 5.0 12.0 0.00 0.00 0.00 63 1019.7
20260902132003 73 260 4.0 10.0 0.00 0.00 0.00 62 1019.8
20260902131503 73 272 5.0 10.0 0.00 0.00 0.00 63 1019.7
20260902131003 73 291 5.0 10.0 0.00 0.00 0.00 64 1019.7
20260902130503 73 291 4.0 8.0 0.00 0.00 0.00 64 1019.6
20260902130003 73 262 4.0 8.0 0.00 0.00 0.00 64 1019.7
20260902125503 73 249 4.0 8.0 0.00 0.00 0.00 65 1019.7
20260902125003 73 245 4.0 8.0 0.00 0.00 0.00 65 1019.8
20260902124717 73 236 4.0 8.0 0.00 0.00 0.00 66 1019.7
20260902124003 73 225 4.0 10.0 0.00 0.00 0.00 68 1019.7
20260902123503 73 227 5.0 12.0 0.00 0.00 0.00 66 1019.7
20260902123004 73 237 5.0 13.0 0.00 0.00 0.00 66 1019.7
20260902122503 73 244 6.0 13.0 0.00 0.00 0.00 67 1019.8
20260902122003 72 219 5.0 13.0 0.00 0.00 0.00 68 1019.8
20260902121717 72 197 5.0 13.0 0.00 0.00 0.00 71 1019.8
20260902121003 73 195 4.0 11.0 0.00 0.00 0.00 70 1019.8
20260902120503 73 219 5.0 14.0 0.00 0.00 0.00 71 1019.7
20260902120003 73 203 6.0 14.0 0.00 0.00 0.00 72 1019.8
20260902115503 72 179 5.0 13.0 0.00 0.00 0.00 72 1019.7
20260902115003 72 187 5.0 12.0 0.00 0.00 0.00 73 1019.8
20260902114503 72 196 5.0 12.0 0.00 0.00 0.00 72 1019.9
20260902114218 72 184 5.0 12.0 0.00 0.00 0.00 73 1019.9
20260902113503 72 174 5.0 12.0 0.00 0.00 0.00 71 1019.9
20260902113003 72 180 4.0 9.0 0.00 0.00 0.00 72 1019.9
20260902112716 72 186 3.0 9.0 0.00 0.00 0.00 72 1019.9
20260902112003 72 198 4.0 12.0 0.00 0.00 0.00 72 1019.7
20260902111503 72 182 5.0 12.0 0.00 0.00 0.00 72 1019.8
20260902111005 72 181 4.0 10.0 0.00 0.00 0.00 71 1019.8
20260902110503 72 197 4.0 10.0 0.00 0.00 0.00 72 1019.8
20260902110217 72 187 4.0 10.0 0.00 0.00 0.00 72 1019.8
20260902105716 72 198 3.0 11.0 0.00 0.00 0.00 71 1019.9
20260902105003 72 198 4.0 11.0 0.00 0.00 0.00 71 1020.0
20260902104503 72 178 3.0 10.0 0.00 0.00 0.00 71 1020.0
20260902104217 72 191 4.0 10.0 0.00 0.00 0.00 69 1019.9
20260902103505 72 220 4.0 10.0 0.00 0.00 0.00 69 1019.9
20260902103003 72 197 4.0 10.0 0.00 0.00 0.00 72 1019.9
20260902102503 71 181 5.0 12.0 0.00 0.00 0.00 71 1020.0
20260902102003 71 180 5.0 12.0 0.00 0.00 0.00 71 1020.0
20260902101503 71 187 5.0 11.0 0.00 0.00 0.00 71 1020.0
20260902101003 71 214 5.0 11.0 0.00 0.01 0.00 71 1020.0
20260902100503 71 236 5.0 11.0 0.00 0.01 0.00 70 1020.0
20260902100003 71 224 4.0 10.0 0.00 0.01 0.00 71 1020.1
20260902095503 72 211 4.0 10.0 0.00 0.01 0.00 70 1020.0
20260902095003 71 214 4.0 10.0 0.00 0.01 0.00 70 1020.1
20260902094503 71 186 4.0 10.0 0.00 0.01 0.00 70 1020.0
20260902094003 71 211 5.0 11.0 0.00 0.01 0.00 69 1020.2
20260902093503 70 248 6.0 12.0 0.00 0.01 0.00 70 1020.1
20260902093003 70 247 5.0 12.0 0.00 0.01 0.00 69 1020.1
20260902092503 70 230 4.0 11.0 0.00 0.01 0.00 67 1020.1
20260902092003 70 196 4.0 11.0 0.00 0.01 0.00 67 1020.1
20260902091503 70 185 4.0 10.0 0.00 0.01 0.00 67 1020.0
20260902091217 70 178 4.0 10.0 0.00 0.01 0.00 67 1020.0
20260902090503 69 179 4.0 10.0 0.00 0.01 0.00 68 1020.0
20260902090003 68 177 4.0 11.0 0.00 0.01 0.00 68 1020.1
20260902085503 68 172 5.0 11.0 0.00 0.01 0.00 69 1020.1
20260902085003 68 173 4.0 10.0 0.00 0.01 0.00 70 1020.2
20260902084718 68 189 4.0 10.0 0.00 0.01 0.00 70 1020.1